Flag for U.S.A. Weather past 2 weeks in Chula Vista, California, U.S.A.

Now
68 °F

Overcast.


Feels Like: 68 °F
Forecast: 65 / 72 °F
Wind: 7 mph from Northwest

Location: Brown Field Municipal Airport

Current Time: Jul 4, 2015 at 9:23:45 AM

Latest Report: Jul 4, 2015 at 8:53 AM


Visibility: 10 mi

Pressure: 29.90 "Hg

Humidity: 78%

Dew point: 61 °F

Location of Chula VistaLocation

Historic Weather in Chula Vista — Graph

°F

Chula Vista temperature yesterday

Maximum temperature yesterday: 78 °F (at 1:53 PM)
Minimum temperature yesterday: 65 °F (at 12:53 AM)
Average temperature yesterday: 69 °F

Past Weeks' High & Low Weather Summary

 TemperatureHumidityPressure
High86 °F (Jun 30, 4:53 PM)100% (Jun 19, 7:53 AM)30.01 "Hg (Jun 19, 7:53 AM)
Low59 °F (Jun 21, 3:03 AM)47% (Jun 19, 1:53 PM)29.80 "Hg (Jun 30, 5:53 PM)
Average69 °F80%29.90 "Hg
* Reported Jun 19 7:53 AM — Jul 4 7:53 AM, Chula Vista, Weather by CustomWeather, © 2015

Note: Actual official high and low records may vary slightly from our data, if they occured in-between our weather recording intervals... More about our weather records

Advertising

Chula Vista weather history for previous 24 hours

 ConditionsComfort  
Time TempWeatherWind HumidityBarometerVisibility
7:53 AM
Sat, Jul 4
67 °FOvercast.7 mph81%29.89 "Hg10 mi
6:53 AM66 °FOvercast.3 mph84%29.88 "Hg10 mi
5:53 AM66 °FOvercast.No wind84%29.87 "Hg10 mi
4:53 AM66 °FOvercast.No wind84%29.86 "Hg10 mi
3:53 AM65 °FOvercast.5 mph87%29.86 "Hg10 mi
2:53 AM65 °FLow clouds.3 mph87%29.87 "Hg10 mi
1:53 AM64 °FLow clouds.6 mph90%29.88 "Hg10 mi
12:53 AM65 °FLow clouds.No wind91%29.88 "Hg10 mi
11:53 PM
Fri, Jul 3
65 °FLow clouds.3 mph87%29.89 "Hg10 mi
10:53 PM66 °FLow clouds.No wind87%29.90 "Hg10 mi
9:53 PM65 °FLow clouds.6 mph91%29.90 "Hg10 mi
8:53 PM65 °FLow clouds.5 mph91%29.88 "Hg10 mi
7:53 PM65 °FPartly sunny.8 mph91%29.86 "Hg10 mi
6:53 PM69 °FSunny.9 mph79%29.85 "Hg10 mi
5:53 PM71 °FSunny.12 mph73%29.85 "Hg10 mi
4:53 PM72 °FSunny.9 mph68%29.85 "Hg10 mi
3:53 PM74 °FSunny.14 mph67%29.86 "Hg10 mi
2:53 PM76 °FSunny.15 mph62%29.87 "Hg10 mi
1:53 PM78 °FSunny.10 mph58%29.88 "Hg10 mi
12:53 PM76 °FSunny.10 mph62%29.90 "Hg10 mi
11:53 AM76 °FSunny.9 mph62%29.93 "Hg10 mi
10:53 AM75 °FSunny.9 mph64%29.95 "Hg10 mi
9:53 AM72 °FPassing clouds.6 mph73%29.97 "Hg10 mi
9:00 AM69 °FOvercast.3 mph81%29.98 "Hg8 mi
Weather by CustomWeather, © 2015

See weather overviewHow to use our weather pages